Location: ????????
(60.4333°N, 46.4710°E)
Time: 03:51:11
(UTC+00:00)

Cosmos 2154 Rocket - Pass Details

Date: 25 November 2020
Orbit: 966 x 996 km, 82.9° (Epoch: 19 January)

Event Time Altitude Azimuth Distance (km) Brightness Sun altitude
Rises 14:09:31 0° 346° (NNW) 3,710 7.0 -14.3°
Reaches altitude 10° 14:12:03 10° 344° (NNW) 2,762 6.4 -14.6°
Maximum altitude 14:18:20 70° 263° (W) 1,059 4.4 -15.3°
Drops below altitude 10° 14:24:38 10° 181° (S) 2,760 6.6 -16.1°
Sets 14:27:09 0° 179° (S) 3,707 7.2 -16.4°
